WWA2482 KHXD-KBOS

Flight info

Callsign WWA2482
Flight time N/A
Altitude 37000
Route LCAPE Q87 GEARS BBOBO Q22 LLUND MERIT ROBUC3
Aircraft CRJ9/M-SDFGIRWY/S

Departure

Time 2026-05-03 20:56
Airport Hilton Head Airport (KHXD)

Arrival

Time N/A
Airport Boston Logan International Airport (KBOS)
Time Latitude Longitude Altitude Speed Heading
2026-05-03 20:43 32.22624 -80.69824 26 ft 0 kts 115°
2026-05-03 20:51 32.22624 -80.69822 29 ft 1 kts 113°
2026-05-03 20:51 32.22618 -80.69804 26 ft 4 kts 109°
2026-05-03 20:51 32.22631 -80.69750 26 ft 11 kts 39°
2026-05-03 20:52 32.22726 -80.69690 26 ft 18 kts 26°
2026-05-03 20:52 32.22841 -80.69623 25 ft 19 kts 26°
2026-05-03 20:52 32.22957 -80.69556 24 ft 19 kts 26°
2026-05-03 20:52 32.23070 -80.69489 23 ft 11 kts 33°
2026-05-03 20:53 32.23072 -80.69487 23 ft 0 kts 42°
2026-05-03 20:54 32.23082 -80.69467 23 ft 7 kts 78°
2026-05-03 20:54 32.23066 -80.69407 24 ft 3 kts 131°
2026-05-03 20:55 32.23050 -80.69402 22 ft 5 kts 184°
2026-05-03 20:55 32.23009 -80.69419 22 ft 0 kts 205°
2026-05-03 20:55 32.22771 -80.69556 26 ft 76 kts 206°
2026-05-03 20:56 32.22089 -80.69947 28 ft 138 kts 205°
2026-05-03 20:56 32.21180 -80.70469 525 ft 145 kts 201°
2026-05-03 20:56 32.20257 -80.70989 1166 ft 154 kts 202°
2026-05-03 20:56 32.19228 -80.71580 1764 ft 173 kts 203°
2026-05-03 20:57 32.18062 -80.71876 2456 ft 188 kts 168°
2026-05-03 20:57 32.16913 -80.70942 2858 ft 221 kts 121°
2026-05-03 20:57 32.16549 -80.69129 3510 ft 240 kts 82°
2026-05-03 20:57 32.16852 -80.67139 4272 ft 253 kts 70°
2026-05-03 20:58 32.17834 -80.65414 4895 ft 261 kts 33°
2026-05-03 20:58 32.19418 -80.64314 5597 ft 267 kts 25°
2026-05-03 20:58 32.21096 -80.63350 6441 ft 270 kts 21°
2026-05-03 20:58 32.22831 -80.62466 7198 ft 274 kts 19°
2026-05-03 20:59 32.24626 -80.61629 7937 ft 280 kts 18°
2026-05-03 20:59 32.26456 -80.60790 8721 ft 284 kts 17°
2026-05-03 20:59 32.28319 -80.59957 9544 ft 288 kts 16°
2026-05-03 20:59 32.30208 -80.59118 10322 ft 293 kts 16°
2026-05-03 21:00 32.32131 -80.58242 10897 ft 305 kts 16°
2026-05-03 21:00 32.32783 -80.57944 10924 ft 314 kts 16°
2026-05-03 21:00 32.36388 -80.56271 11285 ft 353 kts 17°
2026-05-03 21:00 32.38730 -80.55171 11623 ft 370 kts 17°
2026-05-03 21:01 32.41173 -80.54023 11994 ft 385 kts 18°
2026-05-03 21:01 32.43694 -80.52843 12559 ft 393 kts 18°
2026-05-03 21:01 32.46255 -80.51643 13209 ft 398 kts 18°
2026-05-03 21:01 32.48850 -80.50428 13866 ft 404 kts 18°
2026-05-03 21:02 32.51478 -80.49193 14471 ft 408 kts 17°
2026-05-03 21:02 32.54130 -80.47947 15131 ft 412 kts 17°
2026-05-03 21:02 32.56809 -80.46691 15712 ft 416 kts 17°
2026-05-03 21:02 32.59519 -80.45419 16279 ft 421 kts 17°
2026-05-03 21:03 32.62221 -80.44148 16830 ft 425 kts 17°
2026-05-03 21:03 32.64981 -80.42847 17366 ft 429 kts 17°
2026-05-03 21:03 32.67770 -80.41533 17892 ft 433 kts 17°
2026-05-03 21:03 32.70584 -80.40208 18416 ft 437 kts 17°
2026-05-03 21:04 32.73427 -80.38870 18866 ft 441 kts 17°
2026-05-03 21:04 32.76294 -80.37516 19306 ft 445 kts 17°
2026-05-03 21:04 32.79179 -80.36154 19763 ft 448 kts 17°
2026-05-03 21:04 32.82080 -80.34781 20253 ft 450 kts 17°
2026-05-03 21:05 32.84012 -80.33869 20529 ft 452 kts 17°
2026-05-03 21:05 32.86987 -80.32460 20939 ft 456 kts 17°
2026-05-03 21:05 32.90914 -80.30602 21462 ft 460 kts 16°
2026-05-03 21:05 32.92897 -80.29665 21729 ft 462 kts 17°
2026-05-03 21:06 32.95902 -80.28240 22109 ft 466 kts 16°
2026-05-03 21:06 32.98926 -80.26804 22482 ft 469 kts 16°
2026-05-03 21:06 33.01967 -80.25360 22856 ft 472 kts 16°
2026-05-03 21:06 33.05028 -80.23907 23188 ft 475 kts 16°
2026-05-03 21:07 33.08111 -80.22443 23528 ft 478 kts 16°
2026-05-03 21:07 33.11208 -80.20966 23849 ft 481 kts 16°
2026-05-03 21:07 33.14296 -80.19496 24135 ft 484 kts 16°
2026-05-03 21:07 33.17427 -80.18006 24441 ft 486 kts 16°
2026-05-03 21:08 33.20580 -80.16502 24717 ft 489 kts 15°
2026-05-03 21:08 33.23751 -80.14977 24929 ft 492 kts 15°
2026-05-03 21:08 33.26940 -80.13464 25196 ft 495 kts 15°
2026-05-03 21:08 33.30144 -80.11940 25562 ft 494 kts 15°
2026-05-03 21:09 33.33341 -80.10414 25830 ft 496 kts 15°
2026-05-03 21:09 33.36553 -80.08879 26069 ft 499 kts 15°
2026-05-03 21:09 33.39786 -80.07331 26289 ft 501 kts 15°
2026-05-03 21:09 33.43020 -80.05780 26617 ft 499 kts 15°
2026-05-03 21:10 33.46226 -80.04238 27096 ft 496 kts 15°
2026-05-03 21:10 33.49432 -80.02704 27404 ft 496 kts 14°
2026-05-03 21:10 33.52597 -80.01184 27703 ft 496 kts 14°
2026-05-03 21:10 33.55803 -79.99646 28084 ft 494 kts 14°
2026-05-03 21:11 33.58987 -79.98105 28490 ft 493 kts 14°
2026-05-03 21:11 33.62165 -79.96571 28781 ft 493 kts 14°
2026-05-03 21:11 33.65350 -79.95041 29062 ft 492 kts 14°
2026-05-03 21:11 33.68534 -79.93504 29332 ft 492 kts 14°
2026-05-03 21:12 33.71712 -79.91972 29586 ft 493 kts 14°
2026-05-03 21:12 33.74890 -79.90437 29871 ft 493 kts 14°
2026-05-03 21:12 33.78074 -79.88896 30165 ft 493 kts 14°
2026-05-03 21:12 33.81253 -79.87357 30494 ft 490 kts 13°
2026-05-03 21:13 33.84413 -79.85822 30724 ft 490 kts 13°
2026-05-03 21:13 33.87578 -79.84290 30938 ft 490 kts 13°
2026-05-03 21:13 33.90752 -79.82752 31131 ft 491 kts 13°
2026-05-03 21:13 33.93920 -79.81213 31314 ft 492 kts 13°
2026-05-03 21:14 33.97092 -79.79674 31511 ft 491 kts 13°
2026-05-03 21:14 34.00265 -79.78115 31620 ft 494 kts 13°
2026-05-03 21:14 34.03449 -79.76535 31802 ft 495 kts 13°
2026-05-03 21:14 34.06634 -79.74961 32142 ft 492 kts 13°
2026-05-03 21:15 34.09758 -79.73422 32360 ft 491 kts 13°
2026-05-03 21:15 34.12930 -79.71873 32544 ft 491 kts 12°
2026-05-03 21:15 34.16102 -79.70331 32721 ft 491 kts 12°
2026-05-03 21:15 34.19274 -79.68788 32895 ft 492 kts 12°